Miscellaneous Local Product
Issued by NWS North Platte, NE

Home | Current Version | Previous Version | Text Only | Print | Product List | Glossary On
Versions: 1 2 3 4 5 6 7 8 9 10 11 12 13 14 15 16 17 18 19 20 21 22 23 24 25 26 27 28 29 30 31 32 33 34 35 36 37 38 39 40 41 42 43 44 45 46 47 48 49 50
000
AXUS43 KLBF 182310
MISLBF


WESTERN AND NORTH CENTRAL NEBRASKA HOURLY WEATHER ROUNDUP
NATIONAL WEATHER SERVICE NORTH PLATTE NE
600 PM CDT MON AUG 18 2014

***STATIONS NOT REPORTING VARIABLES SUCH AS SKY/WEATHER OR
PRESSURE ARE PROVIDED BY THE NEBRASKA DEPARTMENT OF
ROADS...RAWS...AND APRS NETWORKS...AND ARE NOT UNDER
NATIONAL WEATHER SERVICE QUALITY CONTROL***

...OBSERVATIONS IN AND NEAR THE EASTERN PANHANDLE OF NEBRASKA...

CITY           SKY/WX    TMP DP  RH WIND       PRES   REMARKS
PINE RIDGE     SUNNY     84  56  38 NE7       29.94F
CHADRON        MOSUNNY   88  54  31 NE12      29.91F
ALLIANCE       CLOUDY    70  58  65 VRB5      29.97F
SIDNEY         MOSUNNY   88  47  24 SE5       29.97S
WHITECLAY        N/A     83  55  37 NE3         N/A
RUSHVILLE        N/A     88  50  27 E17         N/A
GORDON           N/A     89  55  30 NE10        N/A
CRESCENT LAKE    N/A     83  38  20 N9G40       N/A
LISCO            N/A     86  50  28 W14         N/A
BIG SPRINGS      N/A     90  60  36 E10         N/A
$$

...OBSERVATIONS IN NORTH CENTRAL NEBRASKA...

CITY           SKY/WX    TMP DP  RH WIND       PRES   REMARKS
VALENTINE      SUNNY     87  53  31 NW10      29.90S
THEDFORD       MOSUNNY   84  57  39 N6        29.92F
AINSWORTH      MOSUNNY   84  58  41 N7        29.90S
O`NEILL        SUNNY     86  63  45 NW7       29.85S
ORD            SUNNY     87  64  46 E5        29.84S
BROKEN BOW     SUNNY     85  66  53 SE6       29.88S
BROWNLEE         N/A     94  53  25 NW10        N/A  HX  91
SPRINGVIEW       N/A     88  60  38 NW5G14      N/A
DUNNING          N/A     86  59  40 N5          N/A
ROSE             N/A     92  62  36 S3          N/A  HX  92
NEWPORT          N/A     87  57  36 NW13        N/A
SARGENT          N/A     87  68  53 CALM        N/A  HX  90
COMSTOCK         N/A     90  68  48 E5          N/A  HX  93
CHAMBERS         N/A     88  60  39 N3          N/A
EWING            N/A     87  69  55 CALM        N/A  HX  91
$$

...OBSERVATIONS IN SOUTHWEST NEBRASKA AND FAR NORTHEAST COLORADO...

CITY           SKY/WX    TMP DP  RH WIND       PRES   REMARKS
WRAY             N/A     91  50  25 NE8       29.91S
IMPERIAL       SUNNY     91  54  28 NE10      29.88F
OGALLALA       PTSUNNY   83  55  37 E12       29.91F
NORTH PLATTE   MOSUNNY   85  59  41 E9        29.89S
MCCOOK         SUNNY     90  63  40 E15       29.84F HX  91
LEXINGTON      SUNNY     83  68  59 E8        29.88S
PAXTON           N/A     88  61  40 E5          N/A
SUTHERLAND       N/A     89  58  35 E5          N/A
BRADY            N/A     84  65  53 N3          N/A
GOTHENBURG       N/A     85  62  46 SE7         N/A
CALLAWAY         N/A     90  71  53 E6          N/A  HX  96
$$

...SOME WEATHER OBSERVATIONS FROM AROUND THE REGION...

CITY           SKY/WX    TMP DP  RH WIND       PRES   REMARKS
DENVER         PTSUNNY   84  40  21 S12       30.05S
LARAMIE        MOSUNNY   81  28  14 NW12      30.16F
CHEYENNE       PTSUNNY   80  48  32 S14G20    30.10S
SCOTTSBLUFF    MOSUNNY   81  62  52 E10       29.96F
RAPID CITY     SUNNY     82  52  35 N18G29    29.92S
PIERRE         SUNNY     74  59  59 NW16      29.81F
WINNER         FAIR      84  56  38 NW14      29.86S
SIOUX FALLS    PTSUNNY   84  66  54 W8        29.74S
OMAHA          MOSUNNY   91  62  37 W8        29.79F HX  91
GRAND ISLAND   SUNNY     85  70  60 S7        29.85S
KANSAS CITY    SUNNY     87  68  52 SW7       29.82F HX  90
WICHITA        MOSUNNY   92  68  45 SE14      29.78F HX  96
HAYS           SUNNY     97  61  30 E10       29.79F HX  97
LIBERAL        PTSUNNY   97  45  16 W6        29.88R HX  93
GOODLAND       MOSUNNY   93  47  20 NE3       29.89S
$$



USA.gov is the U.S. government's official web portal to all federal, state and local government web resources and services.